Jackson, WY

6:55 AM MST on December 15, 2019 (GMT -0700)
Jackson Hole

Weather History for KJAC - October, 2019

Change the Weather History Date:

Tuesday, October 15, 2019

  Actual Average Record
Temperature  
Mean Temperature 39 °F -  
Max Temperature 60 °F 52 °F 71 °F (1991)
Min Temperature 19 °F 23 °F 8 °F (1984)
Degree Days  
Heating Degree Days 26    
Moisture  
Dew Point 21 °F    
Average Humidity 51    
Maximum Humidity 89    
Minimum Humidity 21    
Precipitation  
Precipitation 0.00 in - - ()
Sea Level Pressure  
Sea Level Pressure 30.26 in    
Wind  
Wind Speed 5 mph ()    
Max Wind Speed 9 mph    
Max Gust Speed -    
Visibility 10.0 miles    
Events      
Averages and records for this station are not official NWS values.
T = Trace of Precipitation, MM = Missing Value Source: Averaged Metar Reports

Daily Weather History Graph

Daily Weather History Graph

Search for Another Location

Airport or City:

Astronomy

Oct. 15, 2019 Rise Set
Actual Time 7:36 AM MDT 6:39 PM MDT
Civil Twilight 7:08 AM MDT 7:08 PM MDT
Nautical Twilight 6:34 AM MDT 7:41 PM MDT
Astronomical Twilight 6:01 AM MDT 8:15 PM MDT
Moon 7:59 PM MDT 9:12 AM MDT
Length of Visible Light 12h 00m
Length of Day
11h 02m
Full, 97% of the Moon is Illuminated
Oct 15
Full
Oct 21
Last Quarter
Oct 27
New
Nov 4
First Quarter
Nov 12
Full

Hourly Weather History & Observations

Time (MDT) Temp. Windchill Dew Point Humidity Pressure Visibility Wind Dir Wind Speed Gust Speed Precip Events Conditions
12:56 AM 39.0 °F 35.7 °F 19.9 °F 46% 30.11 in 10.0 mi South 4.6 mph - N/A   Clear
1:56 AM 35.1 °F 30.1 °F 19.9 °F 54% 30.16 in 10.0 mi SSW 5.8 mph - N/A   Clear
2:56 AM 27.0 °F 18.0 °F 19.9 °F 75% 30.22 in 10.0 mi NNE 9.2 mph - N/A   Clear
3:56 AM 25.0 °F 18.1 °F 19.9 °F 81% 30.24 in 10.0 mi NE 5.8 mph - N/A   Clear
4:56 AM 23.0 °F 13.1 °F 19.0 °F 85% 30.25 in 10.0 mi North 9.2 mph - N/A   Clear
5:56 AM 24.1 °F 17.0 °F 19.0 °F 81% 30.27 in 10.0 mi NE 5.8 mph - N/A   Clear
6:56 AM 19.9 °F 11.1 °F 17.1 °F 89% 30.33 in 10.0 mi NNE 6.9 mph - N/A   Clear
7:56 AM 21.9 °F 15.7 °F 18.0 °F 85% 30.35 in 10.0 mi NE 4.6 mph - N/A   Clear
8:56 AM 28.0 °F 22.8 °F 21.9 °F 78% 30.36 in 10.0 mi North 4.6 mph - N/A   Clear
9:56 AM 36.0 °F - 21.9 °F 57% 30.34 in 10.0 mi Calm Calm - N/A   Clear
10:56 AM 41.0 °F 39.0 °F 19.4 °F 42% 30.30 in 10.0 mi Variable 3.5 mph - N/A   Clear
11:56 AM 46.4 °F 44.3 °F 19.4 °F 34% 30.28 in 10.0 mi SSW 4.6 mph - N/A   Clear
12:56 PM 51.8 °F - 21.2 °F 30% 30.27 in 10.0 mi Calm Calm - N/A   Clear
1:56 PM 53.6 °F - 21.2 °F 28% 30.26 in 10.0 mi SSW 9.2 mph - N/A   Clear
2:56 PM 57.2 °F - 17.6 °F 21% 30.25 in 10.0 mi SW 9.2 mph - N/A   Clear
3:56 PM 59.0 °F - 21.0 °F 23% 30.24 in 10.0 mi West 9.2 mph - N/A   Clear
4:07 PM 59.0 °F - 21.2 °F 23% 30.24 in 10.0 mi West 6.9 mph - N/A   Clear
4:56 PM 57.9 °F - 23.0 °F 26% 30.24 in 10.0 mi Variable 5.8 mph - N/A   Clear
5:56 PM 57.0 °F - 23.0 °F 27% 30.25 in 10.0 mi SW 5.8 mph - N/A   Clear
6:56 PM 52.0 °F - 21.9 °F 31% 30.25 in 10.0 mi WSW 5.8 mph - N/A   Clear
7:56 PM 43.0 °F 40.3 °F 19.9 °F 40% 30.26 in 10.0 mi SSE 4.6 mph - N/A   Clear
8:56 PM 42.1 °F - 21.0 °F 43% 30.27 in 10.0 mi Calm Calm - N/A   Clear
9:56 PM 42.1 °F - 19.9 °F 41% 30.27 in 10.0 mi Calm Calm - N/A   Clear
10:56 PM 34.0 °F - 23.0 °F 64% 30.27 in 10.0 mi Calm Calm - N/A   Clear
11:56 PM 30.9 °F 23.5 °F 24.1 °F 76% 30.28 in 10.0 mi NNE 8.1 mph - N/A   Clear